| time (UTC) | temp F | wind direction | speed MPH | gust MPH | rain 1hr in | rain 24hr in | rain mn in | humidity % | barometer mb |
| 20260502130452 | 44 | 324 | 0.0 | 0.0 | 0.00 | 0.00 | 0.00 | 68 | 1022.0 |
| 20260502123434 | 41 | 260 | 0.0 | 0.0 | 0.00 | 0.00 | 0.00 | 75 | 1021.8 |
| 20260502122932 | 40 | 251 | 0.0 | 0.0 | 0.00 | 0.00 | 0.00 | 76 | 1021.8 |
| 20260502122427 | 40 | 247 | 0.0 | 0.0 | 0.00 | 0.00 | 0.00 | 77 | 1021.7 |
| 20260502121926 | 39 | 246 | 0.0 | 0.0 | 0.00 | 0.00 | 0.00 | 79 | 1021.5 |
| 20260502121422 | 38 | 240 | 0.0 | 0.0 | 0.00 | 0.00 | 0.00 | 80 | 1021.7 |
| 20260502120920 | 38 | 241 | 0.0 | 0.0 | 0.00 | 0.00 | 0.00 | 81 | 1021.6 |
| 20260502120416 | 37 | 241 | 0.0 | 0.0 | 0.00 | 0.00 | 0.00 | 83 | 1021.4 |
| 20260502115914 | 37 | 240 | 0.0 | 0.0 | 0.00 | 0.00 | 0.00 | 83 | 1021.5 |
| 20260502115411 | 37 | 241 | 0.0 | 0.0 | 0.00 | 0.00 | 0.00 | 83 | 1021.4 |
| 20260502114906 | 37 | 241 | 0.0 | 0.0 | 0.00 | 0.00 | 0.00 | 82 | 1021.2 |
| 20260502114404 | 37 | 241 | 0.0 | 0.0 | 0.00 | 0.00 | 0.00 | 82 | 1021.3 |
| 20260502113901 | 37 | 241 | 0.0 | 0.0 | 0.00 | 0.00 | 0.00 | 82 | 1021.4 |
| 20260502113358 | 37 | 241 | 0.0 | 0.0 | 0.00 | 0.00 | 0.00 | 83 | 1021.2 |
| 20260502112856 | 37 | 241 | 0.0 | 0.0 | 0.00 | 0.00 | 0.00 | 83 | 1021.3 |
| 20260502112354 | 37 | 238 | 0.0 | 1.0 | 0.00 | 0.00 | 0.00 | 82 | 1021.2 |
| 20260502111851 | 37 | 247 | 0.0 | 0.0 | 0.00 | 0.00 | 0.00 | 81 | 1021.2 |
| 20260502111348 | 37 | 247 | 0.0 | 0.0 | 0.00 | 0.00 | 0.00 | 80 | 1021.1 |
| 20260502110846 | 37 | 247 | 0.0 | 0.0 | 0.00 | 0.00 | 0.00 | 80 | 1021.1 |
| 20260502110344 | 37 | 246 | 0.0 | 0.0 | 0.00 | 0.00 | 0.00 | 80 | 1021.2 |
| 20260502105841 | 37 | 247 | 0.0 | 0.0 | 0.00 | 0.00 | 0.00 | 80 | 1021.0 |
| 20260502105338 | 37 | 241 | 0.0 | 0.0 | 0.00 | 0.00 | 0.00 | 79 | 1021.0 |
| 20260502104836 | 37 | 240 | 0.0 | 0.0 | 0.00 | 0.00 | 0.00 | 80 | 1020.9 |
| 20260502104333 | 37 | 242 | 0.0 | 0.0 | 0.00 | 0.00 | 0.00 | 79 | 1021.0 |
| 20260502103830 | 38 | 242 | 0.0 | 0.0 | 0.00 | 0.00 | 0.00 | 80 | 1021.1 |
| 20260502103327 | 38 | 243 | 0.0 | 1.0 | 0.00 | 0.00 | 0.00 | 79 | 1020.8 |
| 20260502102824 | 38 | 247 | 0.0 | 0.0 | 0.00 | 0.00 | 0.00 | 80 | 1020.9 |
| 20260502102320 | 38 | 247 | 0.0 | 1.0 | 0.00 | 0.00 | 0.00 | 80 | 1020.9 |
| 20260502101818 | 38 | 246 | 0.0 | 0.0 | 0.00 | 0.00 | 0.00 | 79 | 1020.8 |
| 20260502101316 | 38 | 240 | 0.0 | 0.0 | 0.00 | 0.00 | 0.00 | 79 | 1020.7 |
| 20260502100814 | 38 | 240 | 0.0 | 0.0 | 0.00 | 0.00 | 0.00 | 79 | 1020.6 |
| 20260502100313 | 38 | 243 | 0.0 | 0.0 | 0.00 | 0.00 | 0.00 | 78 | 1020.7 |
| 20260502091247 | 39 | 231 | 0.0 | 0.0 | 0.00 | 0.00 | 0.00 | 77 | 1020.5 |
| 20260502090744 | 40 | 228 | 0.0 | 0.0 | 0.00 | 0.00 | 0.00 | 77 | 1020.6 |
| 20260502090241 | 40 | 238 | 0.0 | 0.0 | 0.00 | 0.00 | 0.00 | 75 | 1020.5 |
| 20260502071142 | 42 | 246 | 0.0 | 0.0 | 0.00 | 0.00 | 0.00 | 71 | 1020.2 |
| 20260502070640 | 42 | 246 | 0.0 | 0.0 | 0.00 | 0.00 | 0.00 | 71 | 1020.3 |
| 20260502070137 | 41 | 243 | 0.0 | 1.0 | 0.00 | 0.00 | 0.00 | 73 | 1020.3 |
| 20260502065635 | 41 | 152 | 0.0 | 0.0 | 0.00 | 0.00 | 0.00 | 74 | 1020.4 |
| 20260502065133 | 41 | 150 | 0.0 | 0.0 | 0.00 | 0.00 | 0.00 | 74 | 1020.4 |
| 20260502064632 | 41 | 149 | 0.0 | 0.0 | 0.00 | 0.00 | 0.00 | 75 | 1020.2 |
| 20260502064128 | 41 | 143 | 0.0 | 0.0 | 0.00 | 0.00 | 0.00 | 75 | 1020.2 |
| 20260502063626 | 41 | 143 | 0.0 | 0.0 | 0.00 | 0.00 | 0.00 | 76 | 1020.3 |
| 20260502063123 | 41 | 144 | 0.0 | 0.0 | 0.00 | 0.00 | 0.00 | 78 | 1020.6 |
| 20260502062620 | 41 | 139 | 0.0 | 0.0 | 0.00 | 0.00 | 0.00 | 80 | 1020.4 |
| 20260502062118 | 41 | 142 | 0.0 | 0.0 | 0.00 | 0.00 | 0.00 | 82 | 1020.6 |
| 20260502061616 | 41 | 142 | 0.0 | 0.0 | 0.00 | 0.00 | 0.00 | 83 | 1020.3 |
| 20260502061114 | 41 | 142 | 0.0 | 0.0 | 0.00 | 0.00 | 0.00 | 83 | 1020.2 |
| 20260502060613 | 41 | 142 | 0.0 | 0.0 | 0.00 | 0.00 | 0.00 | 82 | 1020.4 |
| 20260502060110 | 41 | 142 | 0.0 | 0.0 | 0.00 | 0.00 | 0.00 | 79 | 1020.6 |
| 20260502055608 | 42 | 142 | 0.0 | 0.0 | 0.00 | 0.00 | 0.00 | 80 | 1020.4 |
| 20260502055106 | 42 | 142 | 0.0 | 0.0 | 0.00 | 0.00 | 0.00 | 80 | 1020.6 |
| 20260502054605 | 42 | 142 | 0.0 | 0.0 | 0.00 | 0.00 | 0.00 | 79 | 1020.4 |
| 20260502054101 | 42 | 142 | 0.0 | 0.0 | 0.00 | 0.00 | 0.00 | 79 | 1020.1 |
| 20260502053558 | 43 | 142 | 0.0 | 0.0 | 0.00 | 0.00 | 0.00 | 79 | 1020.2 |
| 20260502053056 | 43 | 142 | 0.0 | 0.0 | 0.00 | 0.00 | 0.00 | 77 | 1020.1 |
| 20260502052554 | 43 | 142 | 0.0 | 0.0 | 0.00 | 0.00 | 0.00 | 77 | 1020.4 |
| 20260502052052 | 43 | 142 | 0.0 | 0.0 | 0.00 | 0.00 | 0.00 | 76 | 1020.4 |
| 20260502051550 | 43 | 141 | 0.0 | 0.0 | 0.00 | 0.00 | 0.00 | 75 | 1020.3 |
| 20260502051048 | 43 | 140 | 0.0 | 0.0 | 0.00 | 0.00 | 0.00 | 74 | 1020.1 |
| 20260502050543 | 44 | 136 | 0.0 | 0.0 | 0.00 | 0.00 | 0.00 | 75 | 1020.3 |
| 20260502050040 | 44 | 140 | 0.0 | 0.0 | 0.00 | 0.00 | 0.00 | 76 | 1020.2 |
| 20260502045537 | 44 | 140 | 0.0 | 0.0 | 0.00 | 0.00 | 0.00 | 75 | 1020.1 |
| 20260502045034 | 44 | 132 | 0.0 | 0.0 | 0.00 | 0.00 | 0.00 | 75 | 1019.9 |
| 20260502044531 | 45 | 133 | 0.0 | 0.0 | 0.00 | 0.00 | 0.00 | 73 | 1020.2 |
| 20260502044027 | 46 | 133 | 0.0 | 0.0 | 0.00 | 0.00 | 0.00 | 70 | 1019.9 |
| 20260502043525 | 46 | 132 | 0.0 | 0.0 | 0.00 | 0.00 | 0.00 | 68 | 1020.0 |
| 20260502043021 | 47 | 114 | 0.0 | 0.0 | 0.00 | 0.00 | 0.00 | 64 | 1020.2 |
| 20260502042516 | 47 | 125 | 0.0 | 0.0 | 0.00 | 0.00 | 0.00 | 66 | 1020.3 |
| 20260502042014 | 47 | 106 | 0.0 | 0.0 | 0.00 | 0.00 | 0.00 | 64 | 1020.0 |
| 20260502041512 | 47 | 103 | 0.0 | 1.0 | 0.00 | 0.00 | 0.00 | 65 | 1020.0 |
| 20260502041008 | 48 | 75 | 0.0 | 0.0 | 0.00 | 0.00 | 0.00 | 63 | 1020.2 |
| 20260502040505 | 48 | 69 | 0.0 | 0.0 | 0.00 | 0.00 | 0.00 | 61 | 1020.1 |
| 20260502040002 | 48 | 107 | 0.0 | 1.0 | 0.00 | 0.00 | 0.00 | 62 | 1020.2 |
| 20260502035457 | 47 | 112 | 0.0 | 0.0 | 0.00 | 0.00 | 0.00 | 65 | 1020.2 |
| 20260502034955 | 47 | 78 | 0.0 | 1.0 | 0.00 | 0.00 | 0.00 | 66 | 1020.2 |
| 20260502034453 | 47 | 140 | 0.0 | 0.0 | 0.00 | 0.00 | 0.00 | 68 | 1019.9 |
| 20260502033952 | 46 | 141 | 0.0 | 0.0 | 0.00 | 0.00 | 0.00 | 71 | 1019.8 |
| 20260502033449 | 46 | 141 | 0.0 | 0.0 | 0.00 | 0.00 | 0.00 | 74 | 1020.0 |
| 20260502032946 | 46 | 140 | 0.0 | 0.0 | 0.00 | 0.00 | 0.00 | 78 | 1019.8 |
| 20260502032442 | 46 | 141 | 0.0 | 0.0 | 0.00 | 0.00 | 0.00 | 76 | 1019.8 |
| 20260502031939 | 47 | 141 | 0.0 | 0.0 | 0.00 | 0.00 | 0.00 | 73 | 1019.7 |
| 20260502031438 | 47 | 141 | 0.0 | 0.0 | 0.00 | 0.00 | 0.00 | 72 | 1019.4 |
| 20260502030935 | 47 | 141 | 0.0 | 0.0 | 0.00 | 0.00 | 0.00 | 72 | 1019.7 |
| 20260502030434 | 47 | 140 | 0.0 | 0.0 | 0.00 | 0.00 | 0.00 | 74 | 1019.7 |
| 20260502025931 | 48 | 140 | 0.0 | 0.0 | 0.00 | 0.00 | 0.00 | 72 | 1019.3 |
| 20260502025428 | 48 | 140 | 0.0 | 0.0 | 0.00 | 0.00 | 0.00 | 73 | 1019.3 |
| 20260502024926 | 48 | 140 | 0.0 | 0.0 | 0.00 | 0.00 | 0.00 | 74 | 1019.3 |
| 20260502024424 | 48 | 140 | 0.0 | 0.0 | 0.00 | 0.00 | 0.00 | 74 | 1019.2 |
| 20260502023922 | 48 | 140 | 0.0 | 0.0 | 0.00 | 0.00 | 0.00 | 74 | 1019.2 |
| 20260502023419 | 49 | 140 | 0.0 | 0.0 | 0.00 | 0.00 | 0.00 | 75 | 1018.9 |
| 20260502022916 | 48 | 140 | 0.0 | 0.0 | 0.00 | 0.00 | 0.00 | 68 | 1018.8 |
| 20260502022412 | 48 | 140 | 0.0 | 0.0 | 0.00 | 0.00 | 0.00 | 68 | 1018.7 |
| 20260502021909 | 49 | 140 | 0.0 | 0.0 | 0.00 | 0.00 | 0.00 | 67 | 1018.6 |
| 20260502021407 | 49 | 140 | 0.0 | 0.0 | 0.00 | 0.00 | 0.00 | 67 | 1018.5 |
| 20260502020904 | 50 | 140 | 0.0 | 0.0 | 0.00 | 0.00 | 0.00 | 66 | 1018.5 |
| 20260502020402 | 50 | 140 | 0.0 | 0.0 | 0.00 | 0.00 | 0.00 | 64 | 1018.4 |
| 20260502015858 | 50 | 139 | 0.0 | 0.0 | 0.00 | 0.00 | 0.00 | 65 | 1018.2 |
| 20260502015355 | 50 | 139 | 0.0 | 0.0 | 0.00 | 0.00 | 0.00 | 63 | 1018.0 |
| 20260502014852 | 51 | 139 | 0.0 | 0.0 | 0.00 | 0.00 | 0.00 | 64 | 1018.0 |
| 20260502014349 | 51 | 139 | 0.0 | 0.0 | 0.00 | 0.00 | 0.00 | 62 | 1018.2 |
| 20260502013845 | 52 | 139 | 0.0 | 0.0 | 0.00 | 0.00 | 0.00 | 61 | 1018.2 |
| 20260502013341 | 52 | 139 | 0.0 | 0.0 | 0.00 | 0.00 | 0.00 | 61 | 1018.0 |
| 20260502012838 | 53 | 139 | 0.0 | 0.0 | 0.00 | 0.00 | 0.00 | 60 | 1017.8 |
| 20260502012336 | 53 | 139 | 0.0 | 0.0 | 0.00 | 0.00 | 0.00 | 58 | 1017.9 |
| 20260502011833 | 54 | 139 | 0.0 | 0.0 | 0.00 | 0.00 | 0.00 | 60 | 1017.7 |
| 20260502011329 | 55 | 138 | 0.0 | 0.0 | 0.00 | 0.00 | 0.00 | 56 | 1017.7 |
| 20260502010826 | 56 | 128 | 0.0 | 0.0 | 0.00 | 0.00 | 0.00 | 54 | 1017.4 |
| 20260502010323 | 57 | 89 | 0.0 | 0.0 | 0.00 | 0.00 | 0.00 | 53 | 1017.5 |
| 20260502005820 | 57 | 61 | 0.0 | 1.0 | 0.00 | 0.00 | 0.00 | 51 | 1017.5 |
| 20260502005318 | 57 | 205 | 0.0 | 0.0 | 0.00 | 0.00 | 0.00 | 57 | 1017.4 |
| 20260502004815 | 58 | 213 | 0.0 | 0.0 | 0.00 | 0.00 | 0.00 | 52 | 1017.4 |
| 20260502004310 | 58 | 353 | 0.0 | 0.0 | 0.00 | 0.00 | 0.00 | 48 | 1017.4 |
| 20260502003809 | 59 | 4 | 0.0 | 0.0 | 0.00 | 0.00 | 0.00 | 47 | 1017.1 |
| 20260502003305 | 58 | 116 | 0.0 | 1.0 | 0.00 | 0.00 | 0.00 | 50 | 1017.2 |
| 20260502002801 | 59 | 266 | 0.0 | 0.0 | 0.00 | 0.00 | 0.00 | 49 | 1017.2 |
| 20260502002259 | 59 | 196 | 0.0 | 0.0 | 0.00 | 0.00 | 0.00 | 53 | 1017.1 |
| 20260502001756 | 59 | 297 | 0.0 | 0.0 | 0.00 | 0.00 | 0.00 | 49 | 1017.1 |
| 20260502001254 | 60 | 5 | 0.0 | 0.0 | 0.00 | 0.00 | 0.00 | 47 | 1017.0 |
| 20260502000751 | 60 | 20 | 1.0 | 1.0 | 0.00 | 0.00 | 0.00 | 46 | 1017.0 |
| 20260502000250 | 60 | 11 | 1.0 | 1.0 | 0.00 | 0.00 | 0.00 | 43 | 1017.0 |
| 20260501235744 | 61 | 78 | 0.0 | 1.0 | 0.00 | 0.00 | 0.00 | 43 | 1016.8 |
| 20260501235241 | 61 | 15 | 2.0 | 5.0 | 0.00 | 0.00 | 0.00 | 43 | 1016.9 |
| 20260501234736 | 61 | 52 | 1.0 | 2.0 | 0.00 | 0.00 | 0.00 | 44 | 1016.9 |
| 20260501234234 | 61 | 268 | 0.0 | 0.0 | 0.00 | 0.00 | 0.00 | 44 | 1016.9 |
| 20260501233732 | 62 | 318 | 0.0 | 0.0 | 0.00 | 0.00 | 0.00 | 42 | 1016.9 |
| 20260501233229 | 62 | 8 | 1.0 | 1.0 | 0.00 | 0.00 | 0.00 | 41 | 1016.8 |
| 20260501232724 | 62 | 15 | 1.0 | 1.0 | 0.00 | 0.00 | 0.00 | 40 | 1017.0 |
| 20260501232222 | 62 | 336 | 1.0 | 1.0 | 0.00 | 0.00 | 0.00 | 40 | 1017.0 |
| 20260501231719 | 63 | 16 | 0.0 | 0.0 | 0.00 | 0.00 | 0.00 | 42 | 1016.8 |
| 20260501231218 | 63 | 189 | 1.0 | 2.0 | 0.00 | 0.00 | 0.00 | 43 | 1016.8 |
| 20260501230715 | 63 | 337 | 0.0 | 1.0 | 0.00 | 0.00 | 0.00 | 42 | 1016.8 |
| 20260501230214 | 63 | 318 | 1.0 | 1.0 | 0.00 | 0.00 | 0.00 | 41 | 1016.8 |
| 20260501225711 | 63 | 39 | 0.0 | 0.0 | 0.00 | 0.00 | 0.00 | 40 | 1016.8 |
| 20260501225208 | 64 | 2 | 3.0 | 3.0 | 0.00 | 0.00 | 0.00 | 39 | 1016.5 |
| 20260501224704 | 64 | 356 | 1.0 | 1.0 | 0.00 | 0.00 | 0.00 | 39 | 1016.7 |
| 20260501224202 | 64 | 28 | 2.0 | 3.0 | 0.00 | 0.00 | 0.00 | 39 | 1016.8 |
| 20260501223658 | 64 | 54 | 1.0 | 2.0 | 0.00 | 0.00 | 0.00 | 39 | 1016.5 |
| 20260501223154 | 63 | 274 | 0.0 | 1.0 | 0.00 | 0.00 | 0.00 | 41 | 1016.8 |
| 20260501222650 | 63 | 348 | 1.0 | 1.0 | 0.00 | 0.00 | 0.00 | 41 | 1016.8 |
| 20260501222148 | 62 | 251 | 0.0 | 0.0 | 0.00 | 0.00 | 0.00 | 41 | 1016.9 |
| 20260501221644 | 62 | 352 | 0.0 | 1.0 | 0.00 | 0.00 | 0.00 | 41 | 1016.8 |
| 20260501221142 | 63 | 63 | 1.0 | 1.0 | 0.00 | 0.00 | 0.00 | 39 | 1016.8 |
| 20260501220639 | 64 | 315 | 0.0 | 0.0 | 0.00 | 0.00 | 0.00 | 41 | 1016.8 |
| 20260501220136 | 64 | 335 | 1.0 | 1.0 | 0.00 | 0.00 | 0.00 | 38 | 1016.7 |
| 20260501215633 | 66 | 165 | 0.0 | 1.0 | 0.00 | 0.00 | 0.00 | 37 | 1017.0 |
| 20260501215128 | 66 | 325 | 1.0 | 1.0 | 0.00 | 0.00 | 0.00 | 37 | 1016.9 |
| 20260501214623 | 66 | 349 | 1.0 | 1.0 | 0.00 | 0.00 | 0.00 | 39 | 1017.1 |
| 20260501214119 | 66 | 208 | 1.0 | 1.0 | 0.00 | 0.00 | 0.00 | 40 | 1016.9 |
| 20260501213616 | 66 | 336 | 1.0 | 3.0 | 0.00 | 0.00 | 0.00 | 40 | 1017.2 |
| 20260501213112 | 66 | 343 | 1.0 | 1.0 | 0.00 | 0.00 | 0.00 | 38 | 1017.0 |
| 20260501212609 | 65 | 112 | 1.0 | 1.0 | 0.00 | 0.00 | 0.00 | 45 | 1017.2 |
| 20260501212106 | 65 | 55 | 0.0 | 1.0 | 0.00 | 0.00 | 0.00 | 41 | 1017.4 |
| 20260501211602 | 66 | 335 | 1.0 | 1.0 | 0.00 | 0.00 | 0.00 | 40 | 1017.2 |
| 20260501211100 | 66 | 46 | 0.0 | 1.0 | 0.00 | 0.00 | 0.00 | 41 | 1017.5 |
| 20260501210556 | 66 | 57 | 2.0 | 3.0 | 0.00 | 0.00 | 0.00 | 40 | 1017.6 |
| 20260501210054 | 67 | 296 | 3.0 | 3.0 | 0.00 | 0.00 | 0.00 | 42 | 1017.4 |
| 20260501205550 | 65 | 254 | 3.0 | 3.0 | 0.00 | 0.00 | 0.00 | 39 | 1017.6 |
| 20260501205048 | 64 | 271 | 0.0 | 0.0 | 0.00 | 0.00 | 0.00 | 40 | 1017.8 |
| 20260501204544 | 63 | 213 | 0.0 | 1.0 | 0.00 | 0.00 | 0.00 | 49 | 1017.9 |
| 20260501204040 | 62 | 351 | 0.0 | 1.0 | 0.00 | 0.00 | 0.00 | 44 | 1018.1 |
| 20260501203536 | 64 | 13 | 1.0 | 2.0 | 0.00 | 0.00 | 0.00 | 44 | 1018.1 |
| 20260501203034 | 65 | 352 | 1.0 | 1.0 | 0.00 | 0.00 | 0.00 | 40 | 1018.3 |
| 20260501202531 | 64 | 34 | 1.0 | 1.0 | 0.00 | 0.00 | 0.00 | 41 | 1018.2 |
| 20260501202027 | 64 | 329 | 1.0 | 1.0 | 0.00 | 0.00 | 0.00 | 42 | 1018.1 |
| 20260501201525 | 66 | 348 | 3.0 | 3.0 | 0.00 | 0.00 | 0.00 | 40 | 1018.1 |
| 20260501201021 | 67 | 46 | 1.0 | 1.0 | 0.00 | 0.00 | 0.00 | 40 | 1018.3 |
| 20260501200518 | 66 | 6 | 2.0 | 2.0 | 0.00 | 0.00 | 0.00 | 37 | 1018.2 |
| 20260501200016 | 66 | 82 | 1.0 | 1.0 | 0.00 | 0.00 | 0.00 | 39 | 1018.1 |
| 20260501195513 | 66 | 25 | 3.0 | 3.0 | 0.00 | 0.00 | 0.00 | 37 | 1018.4 |
| 20260501195008 | 66 | 63 | 1.0 | 2.0 | 0.00 | 0.00 | 0.00 | 37 | 1018.3 |
| 20260501194504 | 64 | 111 | 2.0 | 2.0 | 0.00 | 0.00 | 0.00 | 43 | 1018.3 |
| 20260501194000 | 65 | 319 | 0.0 | 1.0 | 0.00 | 0.00 | 0.00 | 40 | 1018.3 |
| 20260501193458 | 66 | 340 | 1.0 | 1.0 | 0.00 | 0.00 | 0.00 | 41 | 1018.3 |
| 20260501192955 | 67 | 240 | 2.0 | 2.0 | 0.00 | 0.00 | 0.00 | 38 | 1018.4 |
| 20260501192453 | 68 | 237 | 2.0 | 3.0 | 0.00 | 0.00 | 0.00 | 37 | 1018.4 |
| 20260501191950 | 67 | 344 | 1.0 | 1.0 | 0.00 | 0.00 | 0.00 | 38 | 1018.2 |
| 20260501191447 | 68 | 294 | 0.0 | 1.0 | 0.00 | 0.00 | 0.00 | 36 | 1018.2 |
| 20260501190944 | 68 | 225 | 1.0 | 1.0 | 0.00 | 0.00 | 0.00 | 37 | 1018.1 |
| 20260501190440 | 66 | 344 | 1.0 | 1.0 | 0.00 | 0.00 | 0.00 | 38 | 1018.4 |
| 20260501185935 | 66 | 301 | 1.0 | 2.0 | 0.00 | 0.00 | 0.00 | 37 | 1018.6 |
| 20260501185431 | 65 | 306 | 0.0 | 0.0 | 0.00 | 0.00 | 0.00 | 40 | 1018.3 |
| 20260501184927 | 65 | 24 | 2.0 | 3.0 | 0.00 | 0.00 | 0.00 | 36 | 1018.3 |
| 20260501184424 | 66 | 136 | 1.0 | 1.0 | 0.00 | 0.00 | 0.00 | 39 | 1018.5 |
| 20260501183918 | 66 | 269 | 0.0 | 1.0 | 0.00 | 0.00 | 0.00 | 39 | 1018.5 |
| 20260501183416 | 64 | 341 | 1.0 | 2.0 | 0.00 | 0.00 | 0.00 | 41 | 1018.5 |
| 20260501182913 | 63 | 335 | 0.0 | 0.0 | 0.00 | 0.00 | 0.00 | 43 | 1018.7 |
| 20260501182409 | 64 | 320 | 1.0 | 2.0 | 0.00 | 0.00 | 0.00 | 42 | 1018.6 |
| 20260501181906 | 64 | 148 | 1.0 | 2.0 | 0.00 | 0.00 | 0.00 | 39 | 1018.8 |
| 20260501181403 | 65 | 180 | 0.0 | 1.0 | 0.00 | 0.00 | 0.00 | 45 | 1018.8 |
| 20260501180901 | 67 | 175 | 1.0 | 2.0 | 0.00 | 0.00 | 0.00 | 38 | 1018.5 |
| 20260501180357 | 66 | 247 | 3.0 | 3.0 | 0.00 | 0.00 | 0.00 | 37 | 1018.8 |
| 20260501175854 | 64 | 253 | 2.0 | 3.0 | 0.00 | 0.00 | 0.00 | 39 | 1018.7 |
| 20260501175350 | 65 | 283 | 0.0 | 1.0 | 0.00 | 0.00 | 0.00 | 41 | 1019.0 |
| 20260501174847 | 65 | 293 | 1.0 | 1.0 | 0.00 | 0.00 | 0.00 | 43 | 1018.8 |
| 20260501174345 | 67 | 238 | 3.0 | 5.0 | 0.00 | 0.00 | 0.00 | 40 | 1019.1 |
| 20260501173842 | 66 | 285 | 2.0 | 2.0 | 0.00 | 0.00 | 0.00 | 42 | 1019.1 |
| 20260501173340 | 66 | 49 | 2.0 | 2.0 | 0.00 | 0.00 | 0.00 | 39 | 1019.2 |
| 20260501172835 | 66 | 162 | 1.0 | 2.0 | 0.00 | 0.00 | 0.00 | 41 | 1018.9 |
| 20260501172330 | 65 | 214 | 2.0 | 5.0 | 0.00 | 0.00 | 0.00 | 38 | 1019.3 |
| 20260501171826 | 65 | 237 | 2.0 | 2.0 | 0.00 | 0.00 | 0.00 | 39 | 1019.4 |
| 20260501171323 | 66 | 168 | 1.0 | 2.0 | 0.00 | 0.00 | 0.00 | 44 | 1019.5 |
| 20260501170820 | 65 | 331 | 3.0 | 5.0 | 0.00 | 0.00 | 0.00 | 39 | 1019.2 |
| 20260501170317 | 65 | 289 | 1.0 | 1.0 | 0.00 | 0.00 | 0.00 | 38 | 1019.3 |
| 20260501165814 | 65 | 286 | 2.0 | 2.0 | 0.00 | 0.00 | 0.00 | 40 | 1019.3 |
| 20260501165312 | 65 | 356 | 2.0 | 2.0 | 0.00 | 0.00 | 0.00 | 41 | 1019.8 |
| 20260501164810 | 64 | 273 | 2.0 | 3.0 | 0.00 | 0.00 | 0.00 | 39 | 1019.7 |
| 20260501164307 | 64 | 1 | 1.0 | 1.0 | 0.00 | 0.00 | 0.00 | 41 | 1019.3 |
| 20260501163803 | 64 | 325 | 1.0 | 2.0 | 0.00 | 0.00 | 0.00 | 41 | 1019.4 |
| 20260501163300 | 64 | 66 | 3.0 | 5.0 | 0.00 | 0.00 | 0.00 | 42 | 1019.3 |
| 20260501162756 | 64 | 223 | 1.0 | 1.0 | 0.00 | 0.00 | 0.00 | 44 | 1019.7 |
| 20260501162253 | 62 | 243 | 2.0 | 5.0 | 0.00 | 0.00 | 0.00 | 44 | 1019.5 |
| 20260501161750 | 63 | 234 | 2.0 | 2.0 | 0.00 | 0.00 | 0.00 | 45 | 1019.5 |
| 20260501161247 | 62 | 273 | 0.0 | 0.0 | 0.00 | 0.00 | 0.00 | 45 | 1019.4 |
| 20260501160743 | 62 | 306 | 1.0 | 1.0 | 0.00 | 0.00 | 0.00 | 46 | 1019.7 |
| 20260501160241 | 62 | 186 | 0.0 | 0.0 | 0.00 | 0.00 | 0.00 | 48 | 1019.7 |
| 20260501155738 | 62 | 172 | 2.0 | 3.0 | 0.00 | 0.00 | 0.00 | 45 | 1019.4 |
| 20260501155235 | 63 | 320 | 2.0 | 2.0 | 0.00 | 0.00 | 0.00 | 42 | 1019.3 |
| 20260501154731 | 61 | 210 | 3.0 | 3.0 | 0.00 | 0.00 | 0.00 | 42 | 1019.7 |
| 20260501154228 | 61 | 233 | 3.0 | 5.0 | 0.00 | 0.00 | 0.00 | 44 | 1019.3 |
| 20260501153726 | 62 | 291 | 2.0 | 2.0 | 0.00 | 0.00 | 0.00 | 45 | 1019.5 |
| 20260501153223 | 61 | 139 | 1.0 | 2.0 | 0.00 | 0.00 | 0.00 | 47 | 1019.1 |
| 20260501152720 | 61 | 200 | 0.0 | 0.0 | 0.00 | 0.00 | 0.00 | 48 | 1019.3 |
| 20260501152216 | 61 | 346 | 0.0 | 0.0 | 0.00 | 0.00 | 0.00 | 46 | 1019.4 |
| 20260501151714 | 62 | 235 | 3.0 | 5.0 | 0.00 | 0.00 | 0.00 | 43 | 1019.3 |
| 20260501151210 | 60 | 339 | 0.0 | 0.0 | 0.00 | 0.00 | 0.00 | 51 | 1019.4 |
| 20260501150707 | 59 | 290 | 0.0 | 1.0 | 0.00 | 0.00 | 0.00 | 50 | 1019.4 |
| 20260501150203 | 59 | 282 | 1.0 | 2.0 | 0.00 | 0.00 | 0.00 | 50 | 1019.4 |
| 20260501145659 | 60 | 206 | 2.0 | 3.0 | 0.00 | 0.00 | 0.00 | 49 | 1019.3 |
| 20260501145157 | 58 | 294 | 1.0 | 2.0 | 0.00 | 0.00 | 0.00 | 55 | 1019.3 |
| 20260501144653 | 58 | 230 | 3.0 | 5.0 | 0.00 | 0.00 | 0.00 | 56 | 1019.1 |
| 20260501144148 | 57 | 76 | 1.0 | 2.0 | 0.00 | 0.00 | 0.00 | 55 | 1019.2 |